User: anonymous   Login
Location: Étavigny
(49.1201°N, 2.9800°E)
Time: 22:34:04
(UTC+00:00)
Language:

THORAD AGENA D DEB - Orbit

View from above orbital plane
View from above orbital plane
View from above satellite
View from above satellite

Ground track
Ground track

The orbit data is extracted from the following two-line orbital elements,

1 42550U 70025TG  24037.98064994  .00001423  00000-0  81430-3 0  9994
2 42550  99.2391 307.5441 0022428 135.5455 287.5174 14.11116239525129
Epoch (UTC): 06 February 2024 23:32:08
Eccentricity: 0.0022428
inclination: 99.2391°
perigee height: 839 km
apogee height: 872 km
right ascension of ascending node: 307.5441°
argument of perigee: 135.5455°
revolutions per day: 14.11116239
mean anomaly at epoch: 287.5174°
orbit number at epoch: 52512

The dashed part of the orbit path shows where the satellite is in the earth's shadow,  

DLR